Miscellaneous Local Product
Issued by NWS North Platte, NE

Home | Current Version | Previous Version | Graphics & Text | Print | Product List | Glossary On
Versions: 1 2 3 4 5 6 7 8 9 10 11 12 13 14 15 16 17 18 19 20 21 22 23 24 25 26 27 28 29 30 31 32 33 34 35 36 37 38 39 40 41 42 43 44 45 46 47 48 49 50
000
AXUS43 KLBF 242010
MISLBF


WESTERN AND NORTH CENTRAL NEBRASKA HOURLY WEATHER ROUNDUP
NATIONAL WEATHER SERVICE NORTH PLATTE NE
300 PM CDT MON JUL 24 2017

NOTE: "FAIR" INDICATES FEW OR NO CLOUDS BELOW 12,000 FEET WITH NO
SIGNIFICANT WEATHER AND/OR OBSTRUCTIONS TO VISIBILITY.

NOTE: STATIONS NOT REPORTING VARIABLES SUCH AS SKY/WEATHER OR
PRESSURE ARE PROVIDED BY RAWS AND APRS NETWORKS AND ARE NOT UNDER
NATIONAL WEATHER SERVICE QUALITY CONTROL.

...OBSERVATIONS IN AND NEAR THE EASTERN PANHANDLE OF NEBRASKA...

CITY           SKY/WX    TMP DP  RH WIND       PRES   REMARKS
PINE RIDGE     SUNNY    101  49  17 SW7       29.84F HX  98
GORDON         FAIR      97  53  22 W13G24    29.87F HX  94
CHADRON        SUNNY    102  37  10 NW7       29.84S HX  96
ALLIANCE       SUNNY    101  46  15 SW13G22   29.91F HX  97
SIDNEY         SUNNY     98  46  17 S15G21    29.99S HX  94
CRESCENT LAKE    N/A     97  52  21 S13G23      N/A  HX  94
$$

...OBSERVATIONS IN NORTHERN NEBRASKA AND FAR SOUTHERN SOUTH DAKOTA...

CITY           SKY/WX    TMP DP  RH WIND       PRES   REMARKS
WINNER         FAIR      98  62  30 S18G26    29.81F HX  99
VALENTINE      SUNNY    105  42  11 S28G37    29.83S HX 100
THEDFORD       SUNNY     99  52  20 S18G29    29.90F HX  97
AINSWORTH      SUNNY     99  56  24 S26       29.87F HX  97
O`NEILL        SUNNY     90  69  49 S16G22    29.91F HX  94
ORD            SUNNY     91  66  43 S15G30    29.92F HX  93
BROKEN BOW     SUNNY     94  66  39 S21G29    29.94F HX  97
VALENTINE NWR    N/A     98  49  18 S20G26      N/A  HX  94
HALSEY           N/A     98  53  21 S12G22      N/A  HX  95
BUTTE            N/A     87  69  55 SE17G26     N/A  HX  91
CHAMBERS         N/A     93  66  41 S3G13       N/A  HX  96
EWING            N/A     86  71  60 S9G17       N/A  HX  91
$$

...OBSERVATIONS IN SOUTHWEST NEBRASKA AND FAR NORTHEAST COLORADO...

CITY           SKY/WX    TMP DP  RH WIND       PRES   REMARKS
HOLYOKE        FAIR      99  55  23 S16G24    29.97S HX  97
IMPERIAL       SUNNY     98  52  21 S16G28    29.95F HX  95
OGALLALA       SUNNY     98  53  21 S16       29.93F HX  96
NORTH PLATTE   SUNNY     98  51  20 S20G28    29.92F HX  95
MCCOOK         SUNNY     98  50  19 S17G25    29.94F HX  95
LEXINGTON      SUNNY     90  70  52 S15       29.96F HX  95
STAPLETON        N/A     98  55  23 SE3G12      N/A  HX  96
GOTHENBURG       N/A     90  63  40 S12         N/A  HX  91
CALLAWAY         N/A     92  73  54 S15         N/A  HX 101
$$

...OBSERVATIONS IN CENTRAL LINCOLN COUNTY AREA...

CITY           SKY/WX    TMP DP  RH WIND       PRES   REMARKS
N.P. AIRPORT   SUNNY     98  51  20 S20G28    29.92F HX  95
N.P. DOWNTOWN    N/A     97  56  25 SW5G13      N/A  HX  95
N.P. SOUTHEAST   N/A     96  56  26 S12G22      N/A  HX  94
N.P. HILLCREST   N/A     96  53  23 S16G33      N/A  HX  93
$$

...SOME OBSERVATIONS FROM AROUND THE REGION...

CITY           SKY/WX    TMP DP  RH WIND       PRES   REMARKS
DENVER         MOSUNNY   95  37  13 VRB3      30.05F HX  90
LIMON          SUNNY     88  50  27 S13G18    30.10F
ASPEN          CLOUDY    83  36  18 VRB5      30.26F
LARAMIE        MOSUNNY   83  33  16 N9        30.21S
CASPER         SUNNY     96  28   9 W13G21    30.02F HX  90
CHEYENNE       SUNNY     93  30  10 MISG      30.10F
SCOTTSBLUFF    SUNNY     99  41  13 W9        29.92F HX  94
GRAND ISLAND   SUNNY     88  73  61 S12       29.97F HX  95
OMAHA          MOSUNNY   85  63  47 SE10      29.99S
SIOUX FALLS    MOSUNNY   82  66  58 S14G22    29.96F
PIERRE         CLOUDY    92  60  34 SE17G26   29.76F HX  91
RAPID CITY     SUNNY     97  52  21 NE15      29.84F HX  94
BISMARCK       SUNNY     88  62  41 S16       29.82S
KANSAS CITY    SUNNY     87  65  47 N7        30.00F
HILL CITY      SUNNY     99  57  24 SE14G22   29.96F HX  98
WICHITA        MOSUNNY   95  68  41 SE9       29.97F HX  99
DODGE CITY     SUNNY     96  49  20 S17G24    30.01F HX  93
OKLAHOMA CITY  MOSUNNY   92  67  43 S10G18    29.98F HX  95
DALLAS         MOSUNNY   89  73  59 S7        29.95F HX  97
AMARILLO       MOSUNNY   94  60  32 S13G21    30.04F HX  94
$$




USA.gov is the U.S. government's official web portal to all federal, state and local government web resources and services.